Regional Weather Roundup
Issued by NWS

Home | Current Version | Previous Version | Graphics & Text | Print | Product List | Glossary On
Versions: 1 2 3 4 5 6 7 8 9 10 11 12 13 14 15 16 17 18 19 20 21 22 23 24 25 26 27 28 29 30 31 32 33 34 35 36 37 38 39 40 41 42 43 44 45 46 47 48 49 50
209
ASUS44 KJAN 231410
RWRMS

MISSISSIPPI HOURLY WEATHER ROUNDUP
NATIONAL WEATHER SERVICE JACKSON MS
900 AM CDT WED APR 23 2014

NOTE: "FAIR: INDICATES FEW OR NO CLOUDS BELOW 12,000 FEET WITH NO
SIGNIFICANT WEATHER AND/OR OBSTRUCTIONS TO VISIBILITY.

MSZ001>002-007>008-010>013-018>021-025>028-034>036-231500-
NORTHWEST MISSISSIPPI

CITY           SKY/WX    TMP DP  RH WIND       PRES   REMARKS
CLARKSDALE       N/A     63  46  55 NE8       30.06R
CLEVELAND      FAIR      62  49  62 E9        30.03S
GREENWOOD      SUNNY     63  46  54 NE8       30.03R
GREENVILLE     SUNNY     64  48  56 E8        30.03R
GRENADA        FAIR      61  45  55 E6        30.05R
OLIVE BRANCH   MOSUNNY   57  43  58 E8        30.05S
OXFORD         FAIR      59  41  51 E7        30.06S
TUNICA         SUNNY     61  45  55 E8        30.06S
$$

MSZ003>006-009-014>017-022>024-029>033-037>039-231500-
NORTHEAST MISSISSIPPI

CITY           SKY/WX    TMP DP  RH WIND       PRES   REMARKS
BELMONT        FAIR      58  44  58 NE8       30.05S
COLUMBUS AFB   SUNNY     63  48  58 NE12      30.03R
CORINTH        FAIR      59  41  51 E7        30.05S
GOLDN TRIANGLE SUNNY     64  48  55 NE7       30.05R
STARKVILLE     FAIR      63  46  55 NE8       30.02F
TUPELO         SUNNY     62  42  47 E9        30.04S
$$

MSZ040-058-231500-
CENTRAL MISSISSIPPI

CITY           SKY/WX    TMP DP  RH WIND       PRES   REMARKS
JACKSON INTL   SUNNY     66  51  58 NE7       30.00S
JACKSON HAWKNS SUNNY     67  51  56 NE5       30.01S
MERIDIAN KEY   SUNNY     66  55  67 N8        30.00S
MERIDIAN NAS   SUNNY     65  53  65 N7        30.01R
RAYMOND        FAIR      64  59  82 CALM      30.01S
VICKSBURG      SUNNY     67  54  63 E6        30.01S
$$

MSZ059>079-231500-
SOUTH MISSISSIPPI

CITY           SKY/WX    TMP DP  RH WIND       PRES   REMARKS
BROOKHAVEN     FAIR      66  57  72 NE3       30.02R
HATTIESBURG    SUNNY     68  59  73 N6        30.00R
MCCOMB         SUNNY     69  56  62 NE6       29.99S
NATCHEZ        SUNNY     68  55  64 E8        30.00S
PINE BELT      SUNNY     66  55  68 N6        30.01R
$$

MSZ080>082-231500-
COASTAL MISSISSIPPI

CITY           SKY/WX    TMP DP  RH WIND       PRES   REMARKS
BAY ST LOUIS   SUNNY     63  55  77 CALM      29.98S
BILOXI         SUNNY     68  64  85 NE5       29.97S
PASCAGOULA     SUNNY     68  64  87 CALM      29.97S
GULFPORT       SUNNY     73  62  68 N5        29.97S
$$



USA.gov is the U.S. government's official web portal to all federal, state and local government web resources and services.